Location: Stanley
(44.2150°N, 114.9367°W)
Time: 01:53:45
(UTC+00:00)

Envisat - Visible Passes

Search period start: 29 November 2022 00:00
Search period end: 09 December 2022 00:00
Orbit: 763 x 765 km, 98.2° (Epoch: 28 November)

Date Brightness Start Highest point End Pass type
(mag) Time Alt. Az. Time Alt. Az. Time Alt. Az.
29 Nov 4.9 11:52:43 10° NNE 11:54:22 21° NNE 11:54:22 21° NNE visible
29 Nov 4.8 13:33:15 10° NNW 13:34:32 14° NW 13:34:32 14° NW visible
30 Nov 5.6 11:16:04 10° NNE 11:16:44 13° NE 11:16:44 13° NE visible
30 Nov 4.6 12:55:12 10° N 12:56:54 19° NNW 12:56:54 19° NNW visible
01 Dec 4.8 12:17:48 10° N 12:19:17 20° N 12:19:17 20° N visible
02 Dec 5.3 11:40:49 10° NNE 11:41:41 15° NNE 11:41:41 15° NNE visible
02 Dec 4.8 13:20:51 10° NNW 13:21:51 14° NNW 13:21:51 14° NNW visible
03 Dec 6.2 00:39:57 10° WSW 00:41:25 11° W 00:42:53 10° WNW visible
03 Dec 4.9 12:43:03 10° N 12:44:15 17° N 12:44:15 17° N visible
04 Dec 5.2 12:05:48 10° NNE 12:06:40 15° N 12:06:40 15° N visible
05 Dec 5.7 11:28:58 10° NNE 11:29:04 11° NNE 11:29:04 11° NNE visible
05 Dec 5.0 13:08:34 10° NNW 13:09:14 13° NNW 13:09:14 13° NNW visible
06 Dec 5.9 00:26:32 10° WSW 00:29:18 15° W 00:32:06 10° NW visible
06 Dec 5.1 12:30:59 10° N 12:31:40 14° N 12:31:40 14° N visible
07 Dec 5.5 11:53:51 10° NNE 11:54:05 11° NNE 11:54:05 11° NNE visible
08 Dec 5.2 12:56:22 10° N 12:56:42 12° N 12:56:42 12° N visible
